Temperature
18 18 18 18 18 18 17 17 17 17 17 17 17 17 17 17 17 17 17 17 18 18 18 18 18 18 18 18 18 18 18 18 18 18 18 18 18 18 18 18 18 18 18
18 18 18 18 18 17 17 17 17 17 17 17 17 17 17 17 17 17 17 17 17 17 17 18 17 17 17 18 18 18 18 18 18 18 18 18 18 18 18 18 18 18 18
18 18 18 18 18 17 17 17 17 17 17 17 17 17 17 17 17 17 17 17 17 17 17 17 17 17 17 18 18 18 18 17 17 17 17 17 17 17 18 18 17 17 18
18 18 18 18 17 17 17 17 17 17 17 17 17 17 17 17 17 17 17 17 17 17 17 17 17 17 17 18 18 17 17 17 17 17 17 17 17 17 17 17 17 17 17
18 18 18 18 18 17 17 17 17 17 17 17 17 17 17 17 17 17 17 17 17 17 17 17 17 17 17 17 17 17 17 17 17 17 17 17 17 17 17 17 17 17 17
18 18 18 18 18 17 17 17 17 17 17 17 17 16 16 16 17 17 17 17 17 17 17 17 17 17 17 17 17 17 17 17 17 17 17 17 17 17 17 17 17 17 17
18 18 18 18 17 17 17 17 17 17 17 16 16 16 16 16 16 16 17 17 17 17 17 17 17 17 17 17 17 17 17 17 17 17 17 17 17 17 17 17 17 17 17
18 18 18 18 17 17 17 17 17 17 17 17 16 16 16 16 16 16 16 16 17 17 17 17 17 17 17 17 17 17 17 16 16 16 17 17 17 17 17 17 17 17 17
18 18 18 18 17 17 17 17 17 17 17 17 17 16 16 16 16 16 16 16 16 17 17 17 17 17 17 17 17 17 17 16 16 16 16 16 17 17 17 17 17 17 17
19 18 18 18 17 17 17 17 17 17 17 16 16 16 16 16 16 16 16 16 16 16 16 16 16 17 17 16 16 16 16 16 16 16 16 16 16 16 16 16 16 16 16
19 19 18 18 17 17 17 17 16 16 16 16 16 16 16 16 16 16 16 16 16 16 16 16 16 16 16 16 16 16 16 16 16 16 16 16 16 16 16 16 16 16 16
19 19 18 18 18 17 17 17 16 16 16 16 16 16 16 16 16 16 16 16 16 16 16 16 16 16 16 16 16 16 16 16 16 16 16 16 16 16 16 16 16 16 16
19 19 18 18 18 17 17 17 16 16 16 16 16 16 16 16 16 16 16 16 16 16 16 16 16 16 16 16 16 16 16 16 16 16 16 16 16 16 16 16 16 16 16
19 18 18 18 18 17 17 17 17 16 16 16 16 16 16 16 16 15 15 15 15 15 15 15 16 16 16 16 16 16 16 16 15 15 15 15 15 16 16 16 16 16 16
19 18 18 18 18 18 17 17 17 16 16 16 16 16 16 15 15 15 15 15 15 15 15 15 15 16 16 16 15 15 15 15 15 15 15 15 15 15 15 15 15 15 16
19 19 18 18 18 18 17 17 17 16 16 16 16 16 16 15 15 15 15 15 15 15 15 15 15 15 15 15 15 15 15 15 15 15 15 15 15 15 15 15 15 15 15
19 19 18 18 18 18 17 17 17 16 16 16 16 16 16 15 15 15 15 15 15 15 15 15 15 15 15 15 15 15 15 15 15 15 15 15 15 15 15 15 15 15 15
19 19 18 18 18 18 17 17 16 16 16 16 16 16 16 15 15 15 15 15 14 14 15 14 14 15 15 15 15 15 15 15 15 15 15 15 15 15 15 15 15 15 15
19 18 18 18 18 17 17 17 16 16 16 16 16 15 15 15 15 15 15 14 14 14 14 14 14 14 14 14 15 14 14 15 14 14 15 14 14 14 14 14 15 15 15
18 18 18 17 17 17 17 16 16 16 16 15 15 15 15 15 15 15 14 14 14 14 14 14 14 14 14 14 14 14 14 14 14 14 14 14 14 14 14 14 14 14 14
18 18 17 17 17 17 16 16 16 16 15 15 15 15 15 15 15 14 14 14 14 14 14 14 14 14 14 14 14 14 14 14 14 14 14 14 14 14 14 14 14 14 14
17 17 17 17 16 16 16 16 16 15 15 15 15 15 15 14 14 14 14 14 14 14 14 14 14 14 14 14 14 14 14 14 14 14 14 14 14 14 14 14 14 14 14
17 17 16 16 16 16 16 16 15 15 15 15 14 14 14 14 14 14 14 14 14 14 14 14 14 13 13 13 14 14 14 14 14 14 14 14 14 14 13 13 13 13 13
16 16 16 16 16 16 15 15 15 15 14 14 14 14 14 14 14 14 14 14 14 14 14 13 13 13 13 13 13 13 14 14 13 13 14 14 14 13 13 13 13 13 13
16 16 16 16 15 15 15 15 15 14 14 14 14 14 14 14 14 14 14 14 13 13 13 13 13 13 13 13 13 13 13 14 14 13 13 13 13 13 13 13 13 13 13
16 16 15 15 15 15 15 14 14 14 14 14 14 14 14 13 13 13 13 13 13 13 13 13 13 13 13 13 13 13 13 13 13 13 13 13 13 13 13 13 13 13 13
Wind_Speed
7 10 10 10 10 10 10 10 10 11 11 11 11 11 11 11 11 11 11 12 12 12 11 11 11 11 11 10 10 10 9 9 9 9 9 8 8 7 7 6 6 7 7
9 12 11 10 10 10 10 10 10 10 10 10 11 11 11 11 11 11 11 11 11 11 11 11 10 11 11 11 11 10 9 9 8 8 8 7 7 7 7 7 8 7 7
10 12 11 9 9 10 10 10 10 10 10 10 10 10 10 11 10 11 11 11 11 11 10 10 10 11 11 11 10 9 9 8 7 6 5 5 7 8 8 7 7 7 7
10 12 11 9 9 9 9 9 10 10 9 9 9 9 10 10 10 10 10 11 10 10 10 10 11 11 10 10 9 8 8 7 6 4 5 6 6 8 8 7 7 6 6
11 13 12 10 9 9 9 9 9 9 9 9 9 9 9 9 9 10 11 11 10 11 10 10 11 10 10 9 8 7 7 6 7 7 7 8 8 9 8 7 6 6 6
10 14 12 11 10 10 10 10 10 10 10 9 9 9 8 9 9 9 10 10 10 10 10 10 10 9 9 9 8 7 7 7 7 7 7 8 8 9 8 7 6 7 7
9 13 12 11 10 10 10 10 9 9 9 9 9 9 9 9 9 9 9 9 9 9 10 10 9 9 9 9 8 7 7 7 6 8 8 8 9 9 9 8 8 8 7
9 11 12 12 11 10 9 9 8 8 8 8 8 8 8 8 9 9 9 9 8 8 9 9 9 9 9 8 8 8 8 8 8 8 8 9 10 10 10 10 9 9 8
8 8 10 10 10 9 9 8 7 7 7 7 6 6 7 7 8 9 9 8 8 8 8 8 8 8 7 7 6 7 8 8 7 7 8 9 10 10 10 10 9 9 8
6 6 7 8 9 9 8 7 6 6 5 5 5 4 5 7 7 8 8 7 7 7 7 7 7 6 5 5 4 5 6 6 7 8 8 9 11 10 10 10 9 9 8
5 4 5 6 7 7 7 8 6 5 4 4 3 2 3 4 6 6 7 6 6 6 5 5 5 4 3 2 1 2 3 3 8 8 9 11 11 11 10 10 9 9 8
4 4 4 4 5 6 5 6 5 4 4 2 2 3 3 4 6 7 6 6 5 4 4 3 2 2 1 1 2 2 3 5 7 8 9 12 11 11 11 10 9 9 9
5 3 3 3 4 5 4 4 3 3 3 2 2 3 3 5 5 5 4 4 3 2 1 2 1 0 1 3 3 3 5 7 8 9 11 12 12 11 10 10 10 9 9
5 3 3 3 3 4 4 3 3 2 2 2 2 3 3 2 2 3 2 3 3 2 1 2 1 2 4 4 4 5 7 7 8 9 11 12 11 11 11 10 9 9 9
5 4 3 3 3 4 3 2 3 2 2 3 2 3 4 2 2 2 3 3 3 3 2 2 3 4 4 5 6 6 6 7 8 9 9 11 11 11 10 9 9 8 8
4 4 4 3 3 4 3 2 2 3 3 3 3 2 4 3 2 2 3 2 3 3 3 2 3 3 3 4 5 5 5 6 7 8 9 9 10 10 10 10 9 8 8
3 4 3 3 3 3 4 2 3 3 3 2 2 2 4 4 4 3 3 2 2 3 3 3 3 3 3 3 3 4 4 5 5 6 7 7 8 8 9 9 9 8 8
3 4 4 3 2 3 4 2 2 3 3 3 3 3 4 5 5 4 2 2 3 3 3 2 2 3 3 3 3 2 3 3 4 5 5 6 6 6 7 8 9 8 8
4 3 5 4 2 3 3 2 3 4 3 3 4 4 4 4 5 5 2 2 3 2 2 2 3 2 2 2 2 2 2 3 3 4 4 5 5 6 6 7 8 8 8
4 4 5 4 2 4 3 2 3 4 2 3 3 3 4 4 5 5 2 2 2 2 2 2 2 2 1 1 2 2 2 2 2 2 2 3 4 5 5 6 6 7 9
4 5 5 4 3 4 2 2 2 2 2 2 2 3 4 3 4 4 2 2 2 2 2 2 2 2 1 2 2 2 2 1 1 1 2 2 3 4 5 5 5 6 7
4 4 5 5 4 4 3 2 2 2 2 3 3 3 4 4 4 3 2 2 2 2 2 2 1 1 0 1 1 1 1 1 2 1 1 2 2 3 3 5 5 7 8
4 4 4 5 4 4 4 3 3 2 2 3 2 2 3 5 5 5 3 2 2 1 1 1 1 1 0 1 1 1 1 1 1 1 1 2 2 2 2 4 6 7 8
5 4 4 5 4 4 4 3 3 3 2 2 1 2 2 4 4 5 4 3 2 1 2 1 1 0 0 0 1 1 0 1 1 0 1 1 1 2 2 3 5 6 7
5 5 5 5 5 4 4 4 3 3 2 1 2 2 2 2 3 4 3 2 2 1 1 1 1 0 0 0 0 0 1 1 0 1 0 1 1 2 2 3 3 5 7
5 4 4 4 5 4 4 3 3 3 2 2 2 2 1 1 1 2 2 1 1 1 1 1 1 1 0 0 0 0 0 0 0 1 1 0 1 1 2 2 3 4 6
Wind_Direction
89 92 81 71 67 64 65 64 65 65 63 61 61 61 61 61 61 59 60 64 68 68 65 65 65 70 72 73 74 76 78 81 80 80 75 71 75 75 72 67 75 84 92
96 96 86 75 70 68 69 67 66 65 66 63 63 64 63 63 63 62 62 64 66 67 66 66 68 71 72 73 74 73 74 78 82 84 82 74 76 81 78 71 69 84 88
98 101 91 78 73 71 71 69 67 68 69 66 64 63 64 63 64 65 65 65 69 71 70 68 70 71 71 72 71 70 71 74 78 81 82 86 82 80 76 73 76 83 85
94 96 91 83 77 73 72 70 69 69 69 65 63 64 63 63 65 66 66 67 72 75 75 72 71 71 70 68 70 68 64 57 56 60 74 80 77 79 74 72 74 81 82
91 94 92 87 81 77 75 73 70 68 67 65 65 67 66 68 68 67 67 68 70 72 74 72 69 67 68 68 67 62 55 47 46 57 66 75 75 78 72 70 74 81 81
97 99 98 92 86 83 79 75 70 67 66 64 65 67 68 72 72 71 70 71 71 71 73 74 71 68 66 64 61 54 45 41 49 65 65 72 80 81 75 71 78 81 79
99 104 107 104 96 90 84 79 73 69 67 66 68 69 71 74 76 75 73 72 72 71 73 74 74 70 67 64 57 48 41 41 73 70 68 67 78 84 77 72 77 79 80
103 108 114 115 110 100 90 82 77 74 71 71 72 71 75 75 74 77 75 73 74 73 73 74 73 71 67 62 53 44 40 41 71 78 78 75 79 80 75 69 72 75 75
109 116 124 130 127 117 104 94 85 81 80 79 78 78 83 83 81 78 75 72 75 78 77 76 74 75 70 62 55 45 39 39 53 70 76 77 80 77 74 72 70 69 69
114 122 127 127 130 133 124 113 105 98 97 96 93 91 98 100 93 85 82 75 76 79 82 83 81 80 74 63 53 39 28 32 64 65 73 80 81 77 73 72 72 69 69
106 115 121 128 128 124 127 128 133 129 126 125 135 131 127 128 116 98 88 89 84 80 82 89 84 84 77 60 46 21 30 64 76 75 71 80 79 75 73 72 71 69 69
105 105 109 114 118 111 106 123 137 134 143 146 135 150 147 105 98 100 102 99 93 85 78 80 78 76 64 49 72 65 58 69 78 79 77 81 76 73 71 69 69 69 68
106 96 95 108 105 106 105 111 106 107 124 115 77 93 91 101 112 116 130 122 110 97 69 72 85 3 75 68 74 70 66 67 71 72 78 78 75 71 70 68 68 67 67
94 100 91 93 103 104 104 109 106 98 96 87 58 79 79 74 87 100 108 117 118 104 64 70 61 62 61 64 70 68 70 74 77 81 79 76 73 71 68 68 68 69 67
112 121 100 86 92 103 98 108 113 103 93 101 64 56 82 85 85 88 85 80 83 82 71 44 42 45 41 43 56 61 65 76 87 87 83 78 73 70 67 67 67 69 70
111 108 112 112 93 93 105 105 96 91 87 80 71 53 78 78 81 83 81 76 75 73 70 59 64 57 46 41 38 48 58 69 86 99 99 86 80 75 70 67 65 68 71
106 107 105 102 93 99 102 100 96 87 87 77 71 67 85 89 83 76 74 75 78 75 72 62 66 65 58 54 45 42 50 60 70 85 102 105 94 82 76 71 64 67 70
71 95 102 103 98 93 97 102 92 82 72 64 52 51 65 83 86 83 79 66 69 67 72 69 64 64 54 50 42 38 45 57 56 69 84 97 102 94 87 78 71 70 70
49 66 94 98 108 93 92 88 73 82 70 54 45 46 45 67 81 79 80 67 62 69 68 68 64 69 65 60 54 57 52 50 44 57 59 73 88 98 106 99 85 79 76
52 53 78 81 98 91 85 84 73 82 85 59 42 47 51 56 70 81 94 82 65 71 67 68 68 67 76 84 73 70 63 66 43 45 50 65 76 95 99 107 109 92 81
62 59 65 63 72 86 83 87 86 79 78 79 59 52 53 60 73 76 75 81 71 68 80 84 84 70 55 64 69 51 37 47 68 63 53 61 54 68 88 91 103 114 99
59 52 70 60 62 73 66 76 90 93 88 88 64 49 43 48 60 80 87 89 101 96 83 69 83 82 59 70 106 115 49 2 8 46 80 79 51 59 75 93 91 98 102
72 52 67 66 62 70 72 69 71 71 69 72 65 56 42 46 49 55 57 79 108 99 99 93 70 107 185 331 59 120 130 182 329 346 53 74 61 56 53 71 77 85 94
69 46 57 67 64 65 84 80 84 89 85 83 78 64 59 51 45 49 47 57 74 88 96 89 76 49 136 299 330 346 173 167 154 330 341 35 72 75 73 69 65 81 86
82 60 50 55 61 58 67 88 86 80 82 82 76 74 63 63 48 43 44 51 56 51 68 95 85 7 139 196 223 330 341 329 176 156 214 340 31 39 64 82 80 79 89
86 75 59 62 57 58 61 77 91 84 75 76 71 65 48 65 59 47 39 36 42 62 38 43 56 55 239 260 229 183 146 77 312 128 170 165 103 37 51 70 87 88 90
Height
1514 1513 1512 1511 1511 1511 1511 1510 1510 1510 1510 1510 1511 1511 1511 1511 1511 1511 1511 1511 1511 1511 1512 1512 1512 1512 1513 1513 1513 1514 1515 1515 1516 1516 1517 1518 1518 1519 1519 1520 1520 1521 1521
1515 1514 1513 1512 1512 1512 1512 1512 1512 1512 1512 1512 1512 1512 1512 1512 1512 1512 1512 1512 1512 1513 1513 1513 1513 1514 1514 1514 1515 1515 1516 1516 1517 1518 1518 1518 1519 1519 1520 1520 1520 1521 1521
1516 1515 1514 1514 1513 1513 1513 1513 1513 1513 1513 1513 1513 1513 1513 1513 1513 1513 1513 1514 1514 1514 1514 1515 1515 1515 1516 1516 1516 1516 1517 1518 1518 1519 1519 1519 1520 1520 1520 1521 1521 1521 1522
1517 1516 1515 1515 1515 1514 1514 1514 1514 1514 1514 1514 1514 1514 1514 1514 1515 1515 1515 1515 1515 1516 1516 1516 1516 1516 1517 1517 1517 1518 1518 1519 1519 1520 1520 1520 1520 1520 1521 1521 1521 1521 1522
1518 1517 1517 1516 1516 1516 1516 1515 1515 1515 1515 1515 1515 1515 1515 1516 1516 1516 1516 1516 1516 1517 1517 1517 1517 1518 1518 1518 1518 1519 1519 1520 1520 1520 1520 1521 1521 1521 1521 1521 1521 1522 1522
1519 1518 1518 1517 1517 1517 1517 1517 1517 1516 1516 1516 1516 1516 1516 1517 1517 1517 1517 1517 1518 1518 1518 1518 1519 1519 1519 1519 1520 1520 1520 1521 1521 1521 1521 1521 1521 1522 1522 1522 1522 1522 1522
1520 1519 1519 1519 1519 1518 1518 1518 1518 1518 1517 1517 1517 1517 1518 1518 1518 1518 1518 1518 1519 1519 1519 1519 1519 1520 1520 1520 1521 1521 1522 1522 1522 1522 1522 1522 1522 1522 1522 1522 1522 1523 1523
1521 1521 1520 1520 1520 1520 1519 1519 1519 1519 1519 1519 1518 1519 1519 1519 1519 1519 1519 1519 1520 1520 1520 1520 1521 1521 1521 1522 1522 1523 1523 1523 1523 1523 1523 1523 1523 1523 1523 1523 1523 1523 1523
1522 1522 1521 1521 1521 1521 1521 1521 1520 1520 1520 1520 1520 1520 1520 1520 1520 1520 1520 1520 1521 1521 1521 1521 1522 1522 1522 1523 1523 1524 1524 1524 1524 1524 1524 1524 1524 1524 1524 1524 1524 1524 1524
1523 1523 1523 1522 1522 1522 1522 1522 1522 1522 1521 1521 1521 1521 1521 1521 1521 1521 1521 1521 1521 1522 1522 1523 1523 1523 1524 1524 1525 1525 1525 1526 1526 1525 1525 1525 1525 1525 1525 1525 1524 1524 1524
1524 1524 1524 1524 1524 1523 1523 1523 1523 1523 1522 1522 1522 1523 1523 1522 1522 1522 1522 1523 1523 1523 1523 1524 1524 1525 1525 1526 1526 1526 1527 1527 1527 1527 1526 1526 1526 1526 1526 1525 1525 1525 1524
1525 1525 1525 1525 1525 1524 1524 1524 1524 1524 1523 1524 1524 1524 1524 1524 1524 1524 1523 1524 1524 1524 1525 1525 1525 1526 1526 1527 1527 1528 1528 1528 1528 1528 1528 1527 1527 1527 1526 1526 1525 1525 1525
1524 1525 1525 1525 1525 1525 1525 1525 1525 1525 1524 1525 1525 1525 1525 1525 1525 1524 1524 1524 1525 1525 1525 1526 1526 1527 1527 1528 1528 1528 1529 1529 1529 1528 1528 1528 1528 1528 1527 1526 1526 1526 1525
1524 1525 1525 1525 1525 1525 1525 1525 1525 1525 1525 1525 1525 1526 1526 1526 1526 1525 1525 1525 1526 1526 1526 1527 1527 1528 1528 1529 1529 1530 1530 1530 1530 1530 1529 1529 1529 1528 1528 1527 1527 1526 1526
1524 1524 1525 1525 1525 1525 1525 1525 1525 1525 1525 1526 1526 1526 1526 1526 1526 1526 1526 1527 1527 1527 1527 1528 1528 1529 1529 1529 1530 1530 1530 1531 1530 1530 1530 1530 1530 1529 1529 1528 1528 1527 1527
1524 1524 1524 1524 1525 1525 1524 1525 1525 1525 1526 1526 1526 1526 1526 1527 1527 1527 1527 1527 1527 1528 1528 1528 1529 1529 1529 1530 1530 1531 1531 1531 1531 1531 1531 1531 1530 1530 1530 1529 1529 1528 1528
1523 1523 1523 1524 1524 1524 1524 1524 1525 1525 1525 1526 1526 1527 1527 1527 1527 1527 1527 1528 1528 1528 1528 1529 1529 1529 1530 1530 1531 1531 1532 1532 1532 1532 1532 1532 1531 1531 1531 1530 1530 1530 1529
1522 1522 1522 1523 1524 1524 1524 1524 1525 1525 1525 1526 1526 1526 1527 1527 1527 1527 1527 1528 1528 1528 1529 1529 1529 1530 1530 1531 1531 1531 1532 1532 1533 1533 1533 1532 1532 1531 1531 1531 1531 1530 1530
1521 1522 1522 1522 1523 1523 1524 1524 1524 1525 1525 1526 1526 1526 1527 1527 1527 1527 1528 1528 1528 1528 1529 1529 1529 1530 1530 1531 1531 1532 1532 1532 1533 1533 1533 1533 1533 1532 1532 1532 1531 1531 1531
1521 1521 1521 1522 1522 1523 1523 1524 1524 1525 1525 1525 1526 1526 1526 1527 1527 1527 1527 1528 1528 1528 1529 1529 1530 1530 1530 1531 1531 1532 1532 1533 1533 1533 1533 1533 1533 1533 1532 1532 1531 1531 1531
1520 1520 1521 1521 1522 1522 1523 1523 1523 1524 1525 1525 1526 1526 1526 1527 1527 1527 1527 1528 1528 1528 1529 1529 1529 1530 1530 1531 1531 1532 1532 1533 1533 1533 1533 1534 1533 1533 1533 1532 1532 1532 1532
1519 1520 1520 1520 1521 1521 1522 1523 1523 1524 1524 1525 1525 1526 1526 1526 1527 1527 1527 1527 1527 1528 1528 1528 1529 1529 1530 1531 1531 1532 1532 1534 1533 1533 1533 1533 1533 1533 1533 1533 1532 1532 1532
1519 1520 1520 1519 1520 1520 1521 1521 1522 1523 1524 1524 1525 1525 1525 1526 1526 1526 1526 1527 1527 1527 1528 1528 1528 1529 1529 1530 1531 1532 1532 1532 1533 1534 1533 1533 1533 1533 1533 1533 1533 1533 1533
1519 1519 1519 1519 1519 1519 1520 1520 1521 1522 1523 1523 1524 1524 1524 1525 1525 1525 1526 1526 1526 1526 1527 1527 1527 1528 1529 1529 1530 1531 1532 1532 1533 1533 1533 1533 1533 1533 1533 1533 1533 1533 1533
1518 1519 1519 1518 1518 1518 1519 1520 1520 1521 1522 1523 1523 1523 1524 1524 1524 1524 1525 1525 1525 1526 1526 1526 1527 1527 1528 1528 1529 1530 1531 1532 1532 1532 1532 1533 1533 1533 1533 1533 1533 1533 1533
1518 1518 1518 1518 1518 1518 1518 1519 1520 1520 1521 1522 1522 1522 1522 1523 1523 1523 1524 1524 1525 1525 1525 1525 1526 1526 1527 1528 1528 1529 1530 1530 1531 1531 1532 1532 1532 1532 1532 1532 1532 1532 1532